Regional Weather Roundup
Issued by NWS

Home | Current Version | Previous Version | Text Only | Print | Product List | Glossary On
Versions: 1 2 3 4 5 6 7 8 9 10 11 12 13 14 15 16 17 18 19 20 21 22 23 24 25 26 27 28 29 30 31 32 33 34 35 36 37 38 39 40 41 42 43 44 45 46 47 48 49 50
000
ASUS42 KKEY 221110
RWRKEY

FLORIDA REGIONAL WEATHER ROUNDUP FOR THE FLORIDA KEYS
NATIONAL WEATHER SERVICE KEY WEST FLORIDA
600 AM EST MON DEC 22 2014

...SOUTH FLORIDA AND THE KEYS...

CITY           SKY/WX    TMP DP  RH WIND       PRES   REMARKS
FORT MYERS     CLOUDY    69  65  86 S7        29.98R
SW REGIONAL AP CLOUDY    67  64  90 SE9       29.98S
NAPLES         MOCLDY    68  65  90 SE7       29.99R
MIAMI          MOCLDY    68  65  90 CALM      30.02S
WEST KENDALL   PTCLDY   N/A N/A N/A E3        30.02S
HOMESTEAD      PTCLDY    64  63  96 N2        30.02R
MARATHON       CLEAR     74  69  85 SE6       30.00S
BOCA CHICA NAS PTCLDY    74  71  91 SE9       29.98F
KEY WEST INTL  CLEAR     75  71  87 SE8       29.99S

...INTERNATIONAL WEATHER...

CITY           SKY/WX    TMP DP  RH WIND       PRES   REMARKS
NASSAU BAHAMAS NOT AVBL
CANCUN MEXICO  PTCLDY    73  72  94 CALM      29.93R
COZUMEL MEXICO PTCLDY    66  66 100 SE3       29.93R

ADJACENT COASTAL WATERS...

STATION/POSITION TIME  SKY/WX   TEMP    WIND        PRES    WAVE
                                AIR SEA DIR/SP/G            HT/PER
                 (UTC)          (F)     (DEG/KT/KT) (MB)    (FT/S)
PULASKI SHOAL LI 1000            74     150/  4/  5 1014.6F
SAND KEY         1037            76     160/ 13/ 15 1015.3R
SOMBRERO KEY     1100            76     140/ 11/ 12 1016.5S
LONG KEY         1000            74 72  170/  8/  9 1016.6F
MOLASSES REEF    1100            76 76  150/ 11/ 13 1016.1R
FOWEY ROCKS      NOT AVBL
Buoy 42080       NOT AVBL

$$


USA.gov is the U.S. government's official web portal to all federal, state and local government web resources and services.